This is the latest recevied weather packets stored in our database for station/object EA1HEH-13. If no packets are shown the sender has not sent any weather packets the latest 10 day(s).
| Time | Temp. | Humidity | Pressure | Rain* | Wind** | Luminosity | Snow |
|---|---|---|---|---|---|---|---|
| 1778139946 | 16.11° C | 29% | 930.7 hPa | - | - | - | - |
| 1778139346 | 16.11° C | 29% | 930.7 hPa | - | - | - | - |
| 1778138746 | 15.56° C | 29% | 930.5 hPa | - | - | - | - |
| 1778138146 | 15.56° C | 29% | 930.6 hPa | - | - | - | - |
| 1778137546 | 15.56° C | 29% | 930.6 hPa | - | - | - | - |
| 1778136946 | 15.56° C | 29% | 930.6 hPa | - | - | - | - |
| 1778136346 | 15° C | 29% | 930.5 hPa | - | - | - | - |
| 1778135746 | 15.56° C | 29% | 930.5 hPa | - | - | - | - |
| 1778135146 | 15.56° C | 29% | 930.6 hPa | - | - | - | - |
| 1778134546 | 15.56° C | 29% | 930.6 hPa | - | - | - | - |
| 1778133946 | 16.11° C | 28% | 930.6 hPa | - | - | - | - |
| 1778133346 | 16.11° C | 28% | 930.3 hPa | - | - | - | - |
| 1778132746 | 16.11° C | 28% | 930.2 hPa | - | - | - | - |
| 1778132146 | 16.11° C | 29% | 930.2 hPa | - | - | - | - |
| 1778131546 | 16.11° C | 29% | 930.4 hPa | - | - | - | - |
| 1778130945 | 16.11° C | 29% | 930.5 hPa | - | - | - | - |
| 1778130346 | 16.11° C | 29% | 930.5 hPa | - | - | - | - |
| 1778129746 | 16.11° C | 29% | 930.4 hPa | - | - | - | - |
| 1778129145 | 16.11° C | 29% | 930.3 hPa | - | - | - | - |
| 1778128546 | 16.11° C | 30% | 930.4 hPa | - | - | - | - |
| 1778127946 | 16.11° C | 32% | 930.4 hPa | - | - | - | - |
| 1778127345 | 16.67° C | 32% | 930.5 hPa | - | - | - | - |
| 1778126746 | 16.67° C | 27% | 930.5 hPa | - | - | - | - |
| 1778126146 | 16.67° C | 28% | 930.6 hPa | - | - | - | - |
| 1778125545 | 16.67° C | 27% | 930.4 hPa | - | - | - | - |
* Rain since midnight (hover to see other rain measurements)
** Current wind speed in m/s (hover to see current wind gust speed)